Tracking 28790 objects as of 19-Apr-2024
HD Live streaming from Space Station
objects crossing your sky now

BEIDOU 3M17

Track BEIDOU 3M17 now!
BEIDOU 3M17 is classified as:


NORAD ID: 43706
Int'l Code: 2018-093A
Perigee: 21,512.5 km
Apogee: 21,558.4 km
Inclination: 54.2 °
Period: 773.2 minutes
Semi major axis: 27906 km
RCS: Unknown
Launch date: November 18, 2018
Source: People's Republic of China (PRC)
Launch site: Xichang Space Center, China (XSC)
Your satellite tracking list
Your tracking list is empty




NASA's NSSDC Master Catalog

Two Line Element Set (TLE):
1 43706U 18093A   24108.90969703 -.00000049  00000-0  00000-0 0  9993
2 43706  54.2223 209.1213 0008222 281.2656  78.6490  1.86228456 36827
Source of the keplerian elements: AFSPC